Weather History for KW22 - December, 2012

Change the Weather History Date:

Monday, December 24, 2012

  Actual Average (KEKN) Record (KEKN)
Temperature  
Mean Temperature 35 °F 30 °F  
Max Temperature 42 °F 40 °F 65 °F (1964)
Min Temperature 28 °F 21 °F -22 °F (1989)
Degree Days  
Heating Degree Days 30 35  
Month to date heating degree days 763  
Since 1 July heating degree days 2047  
Cooling Degree Days 0 0  
Month to date cooling degree days 0  
Year to date cooling degree days 475  
Moisture  
Dew Point 33 °F    
Average Humidity 95    
Maximum Humidity 100    
Minimum Humidity 86    
Precipitation  
Precipitation 0.06 in 0.11 in 0.97 in (1984)
Month to date precipitation 2.58  
Year to date precipitation 45.25  
Snow  
Snow 0.00 in - - ()
Month to date snowfall  
Since 1 September snowfall  
Snow Depth -    
Sea Level Pressure  
Sea Level Pressure 29.86 in    
Wind  
Wind Speed 2 mph (SW)    
Max Wind Speed 16 mph    
Max Gust Speed 21 mph    
Visibility 7 miles    
Events Fog , Rain    
T = Trace of Precipitation, MM = Missing Value Source: NWS Daily Summary

Daily Weather History Graph

Daily Weather History Graph

Search for Another Location

Airport or City:

Trip Planner

Search our weather history database for the weather conditions in past years. The results will help you decide how hot, cold, wet, or windy it might be!

Date:

Astronomy

Dec. 24, 2012 Rise Set
Actual Time 7:37 AM EST 5:04 PM EST
Civil Twilight 7:07 AM EST 5:34 PM EST
Nautical Twilight 6:34 AM EST 6:07 PM EST
Astronomical Twilight 6:01 AM EST 6:40 PM EST
Moon 2:29 PM EST (12/24) 4:15 AM EST (12/24)
Length of Visible Light 10h 26m
Length of Day
9h 26m
Waxing Gibbous, 88% of the Moon is Illuminated
Dec 24
Waxing Gibbous
Dec 28
Full
Jan 4
Last Quarter
Jan 11
New
Jan 18
First Quarter

Hourly Weather History & Observations

Time (EST) Temp. Windchill Dew Point Humidity Pressure Visibility Wind Dir Wind Speed Gust Speed Precip Events Conditions
12:15 AM 30.2 °F - 26.6 °F 86% 29.97 in 10.0 mi Calm Calm - N/A   Clear
12:35 AM 30.2 °F - 26.6 °F 86% 29.97 in 10.0 mi Calm Calm - N/A   Clear
12:55 AM 30.2 °F 25.4 °F 26.6 °F 86% 29.96 in 10.0 mi ESE 4.6 mph - N/A   Clear
1:15 AM 30.2 °F - 26.6 °F 86% 29.96 in 10.0 mi Calm Calm - N/A   Clear
1:35 AM 30.2 °F - 26.6 °F 86% 29.96 in 10.0 mi Calm Calm - N/A   Clear
1:55 AM 30.2 °F - 26.6 °F 86% 29.96 in 10.0 mi Calm Calm - N/A   Clear
2:15 AM 28.4 °F - 26.6 °F 93% 29.96 in 10.0 mi Calm Calm - N/A   Clear
2:35 AM 28.4 °F - 26.6 °F 93% 29.96 in 10.0 mi Calm Calm - N/A   Clear
2:55 AM 28.4 °F - 26.6 °F 93% 29.96 in 10.0 mi Calm Calm - N/A   Clear
3:15 AM 30.2 °F - 26.6 °F 86% 29.96 in 10.0 mi Calm Calm - N/A   Clear
3:35 AM 30.2 °F - 26.6 °F 86% 29.96 in 10.0 mi Calm Calm - N/A   Clear
3:55 AM 28.4 °F - 26.6 °F 93% 29.96 in 10.0 mi Calm Calm - N/A   Clear
4:15 AM 28.4 °F - 26.6 °F 93% 29.96 in 10.0 mi Calm Calm - N/A   Clear
4:35 AM 28.4 °F - 26.6 °F 93% 29.95 in 10.0 mi Calm Calm - N/A   Clear
4:55 AM 28.4 °F - 26.6 °F 93% 29.95 in 10.0 mi Calm Calm - N/A   Clear
5:15 AM 28.4 °F - 26.6 °F 93% 29.94 in 10.0 mi Calm Calm - N/A   Clear
5:35 AM 28.4 °F - 26.6 °F 93% 29.93 in 10.0 mi Calm Calm - N/A   Clear
5:55 AM 28.4 °F - 24.8 °F 86% 29.92 in 10.0 mi Calm Calm - N/A   Clear
6:15 AM 28.4 °F 23.3 °F 26.6 °F 93% 29.91 in 10.0 mi ESE 4.6 mph - N/A   Clear
6:35 AM 28.4 °F 24.6 °F 26.6 °F 93% 29.91 in 10.0 mi ENE 3.5 mph - N/A   Clear
6:55 AM 30.2 °F - 26.6 °F 86% 29.90 in 10.0 mi Calm Calm - N/A   Clear
7:15 AM 30.2 °F - 26.6 °F 86% 29.90 in 10.0 mi Calm Calm - N/A   Clear
7:35 AM 28.4 °F 23.3 °F 26.6 °F 93% 29.89 in 10.0 mi East 4.6 mph - N/A   Clear
7:55 AM 30.2 °F - 26.6 °F 86% 29.89 in 10.0 mi Calm Calm - N/A   Clear
8:15 AM 30.2 °F - 26.6 °F 86% 29.89 in 10.0 mi Calm Calm - N/A   Clear
8:35 AM 30.2 °F - 26.6 °F 86% 29.87 in 10.0 mi Calm Calm - N/A   Clear
8:55 AM 30.2 °F - 26.6 °F 86% 29.88 in 10.0 mi Calm Calm - N/A   Clear
9:15 AM 32.0 °F - 28.4 °F 87% 29.88 in 10.0 mi Calm Calm - N/A   Clear
9:35 AM 30.2 °F 25.4 °F 26.6 °F 86% 29.86 in 10.0 mi NE 4.6 mph - N/A   Clear
9:55 AM 32.0 °F 28.7 °F 28.4 °F 87% 29.86 in 10.0 mi ENE 3.5 mph - N/A   Clear
10:15 AM 32.0 °F - 28.4 °F 87% 29.86 in 10.0 mi Calm Calm - N/A   Scattered Clouds
10:35 AM 32.0 °F - 30.2 °F 93% 29.85 in 10.0 mi Calm Calm - N/A Rain Light Rain
10:55 AM 32.0 °F - 32.0 °F 100% 29.84 in 8.0 mi Calm Calm - N/A Rain Light Rain
11:15 AM 32.0 °F - 32.0 °F 100% 29.84 in 5.0 mi Calm Calm - N/A Rain Light Rain
11:35 AM 32.0 °F - 32.0 °F 100% 29.82 in 5.0 mi Calm Calm - N/A Rain Light Rain
11:55 AM 32.0 °F - 32.0 °F 100% 29.82 in 4.0 mi Calm Calm - 0.01 in Rain Light Rain
12:15 PM 32.0 °F 28.7 °F 32.0 °F 100% 29.80 in 4.0 mi East 3.5 mph - N/A   Overcast
12:35 PM 33.8 °F - 32.0 °F 93% 29.79 in 9.0 mi Calm Calm - N/A Rain Light Rain
12:55 PM 33.8 °F - 32.0 °F 93% 29.79 in 5.0 mi Calm Calm - N/A Rain Light Rain
1:15 PM 35.6 °F - 33.8 °F 93% 29.77 in 0.8 mi Calm Calm - 0.02 in Rain Light Rain
1:35 PM 35.6 °F 32.8 °F 35.6 °F 100% 29.76 in 5.0 mi SE 3.5 mph - 0.03 in Rain Light Rain
1:55 PM 35.6 °F - 35.6 °F 100% 29.76 in 9.0 mi Calm Calm - 0.03 in   Mostly Cloudy
2:15 PM 37.4 °F - 37.4 °F 100% 29.75 in 9.0 mi Calm Calm - N/A   Overcast
2:35 PM 37.4 °F - 37.4 °F 100% 29.76 in 10.0 mi Calm Calm - N/A   Overcast
2:55 PM 37.4 °F - 37.4 °F 100% 29.76 in 0.8 mi Calm Calm - N/A   Overcast
3:15 PM 39.2 °F - 39.2 °F 100% 29.76 in 3.0 mi Calm Calm - N/A Rain Light Rain
3:35 PM 37.4 °F - 37.4 °F 100% 29.76 in 1.0 mi Calm Calm - 0.01 in Rain Light Rain
3:55 PM 37.4 °F - 37.4 °F 100% 29.76 in 1.0 mi Calm Calm - 0.01 in   Overcast
4:15 PM 37.4 °F - 37.4 °F 100% 29.76 in 2.0 mi Calm Calm - N/A   Light Drizzle
4:35 PM 37.4 °F - 37.4 °F 100% 29.77 in 2.5 mi Calm Calm - N/A   Overcast
4:55 PM 37.4 °F 33.8 °F 37.4 °F 100% 29.78 in 0.2 mi SSW 4.6 mph - N/A   Light Drizzle
5:15 PM 39.2 °F 37.0 °F 39.2 °F 100% 29.78 in 0.2 mi SW 3.5 mph - N/A Fog Fog
5:35 PM 39.2 °F 33.0 °F 39.2 °F 100% 29.78 in 0.2 mi SSW 9.2 mph - N/A Fog Fog
5:55 PM 41.0 °F 35.2 °F 41.0 °F 100% 29.79 in 4.0 mi SW 9.2 mph - N/A   Overcast
6:15 PM 42.8 °F 38.0 °F 42.8 °F 100% 29.80 in 3.0 mi SSW 8.1 mph - N/A   Overcast
6:35 PM 42.8 °F 37.5 °F 42.8 °F 100% 29.80 in 2.0 mi SW 9.2 mph - N/A   Overcast
6:55 PM 42.8 °F 38.0 °F 42.8 °F 100% 29.80 in 1.0 mi SW 8.1 mph - N/A   Overcast
7:15 PM 42.8 °F 37.5 °F 42.8 °F 100% 29.81 in 1.8 mi SW 9.2 mph - N/A   Overcast
7:35 PM 42.8 °F 37.5 °F 42.8 °F 100% 29.82 in 1.0 mi SW 9.2 mph - N/A Rain Light Rain
7:55 PM 42.8 °F 38.0 °F 42.8 °F 100% 29.82 in 1.5 mi WSW 8.1 mph - 0.01 in Rain Light Rain
8:15 PM 42.8 °F 37.5 °F 42.8 °F 100% 29.83 in 1.5 mi SW 9.2 mph - N/A   Overcast
8:35 PM 42.8 °F 37.5 °F 42.8 °F 100% 29.83 in 1.2 mi WSW 9.2 mph - N/A Rain Light Rain
8:55 PM 42.8 °F 36.6 °F 42.8 °F 100% 29.84 in 2.0 mi WSW 11.5 mph - N/A   Overcast
9:15 PM 42.8 °F 36.6 °F 42.8 °F 100% 29.85 in 1.5 mi WSW 11.5 mph - N/A   Overcast
9:35 PM 42.8 °F 35.1 °F 42.8 °F 100% 29.87 in 5.0 mi West 16.1 mph 20.7 mph N/A   Overcast
9:55 PM 41.0 °F 33.1 °F 41.0 °F 100% 29.88 in 10.0 mi West 15.0 mph - N/A   Overcast
10:15 PM 41.0 °F 33.1 °F 41.0 °F 100% 29.88 in 10.0 mi West 15.0 mph 18.4 mph N/A   Overcast
10:35 PM 41.0 °F 33.5 °F 41.0 °F 100% 29.89 in 10.0 mi West 13.8 mph 18.4 mph N/A   Overcast
10:55 PM 39.2 °F 33.0 °F 39.2 °F 100% 29.89 in 10.0 mi West 9.2 mph - N/A   Overcast
11:15 PM 41.0 °F 35.2 °F 41.0 °F 100% 29.90 in 9.0 mi West 9.2 mph - N/A   Overcast
11:35 PM 41.0 °F 35.2 °F 41.0 °F 100% 29.90 in 7.0 mi West 9.2 mph - N/A   Overcast
11:55 PM 39.2 °F 32.5 °F 39.2 °F 100% 29.91 in 5.0 mi West 10.4 mph - N/A   Overcast